Wind_Speed
6 5 5 2 5 6 6 4 4 2 3 2 3 4 6 7 7 6 8 8 3 3 4 2 3 6 7 7 6 14 24 24 21 21 20 19 19 18 15 14 14 14 13 13 16 19 20 21 23 24 25 23 20 23 27 31 33 33 32 31 31 30 28 28 26 24 24 26 29 30 30 30 29 29 29 28 27 28 29 30 30 30 30 29 28 27
5 5 2 5 7 5 4 3 3 1 0 1 3 5 5 5 8 8 8 8 3 2 4 2 6 6 6 6 5 13 17 15 16 19 17 18 18 17 15 14 14 12 12 14 18 22 22 23 24 25 26 25 26 30 33 34 33 30 29 29 31 31 28 25 24 24 26 28 31 33 33 32 31 30 29 28 26 25 27 28 28 28 29 29 29 28
5 2 5 7 4 1 2 3 3 2 2 2 2 3 5 4 7 9 7 4 2 2 6 3 7 4 5 5 5 9 12 13 18 20 18 18 17 16 15 14 13 13 13 17 20 23 24 23 24 26 28 28 30 32 32 31 30 29 29 30 31 31 29 26 26 28 30 31 32 33 33 32 31 30 30 28 26 25 26 26 26 25 26 26 27 27
3 3 5 3 3 2 2 4 4 4 4 3 3 3 6 4 4 7 6 6 2 3 7 3 7 2 3 5 5 7 12 16 18 20 19 18 16 15 14 13 14 14 15 18 22 24 25 24 26 29 30 31 32 32 31 30 31 31 31 32 32 30 28 28 29 31 32 33 32 32 31 31 30 29 28 27 26 25 26 26 25 24 23 24 24 25
2 5 3 3 6 5 3 6 5 4 5 4 4 5 7 6 5 7 10 12 7 4 3 3 4 2 2 3 3 3 7 11 13 16 17 16 15 14 13 13 14 14 15 19 23 24 24 25 28 29 30 32 32 30 29 30 30 31 32 31 27 27 28 28 29 31 31 32 31 31 30 28 28 29 28 28 28 27 28 28 28 28 27 27 27 26
3 4 3 3 5 7 4 4 2 2 4 5 6 7 8 8 8 10 11 11 8 5 0 4 2 2 3 4 4 3 3 5 7 10 11 13 14 13 12 13 14 14 15 19 21 22 23 25 27 28 30 32 31 28 26 26 29 33 36 32 28 29 31 29 29 29 30 31 32 33 32 29 28 29 29 30 30 30 31 31 32 32 32 30 29 28
3 4 4 3 4 6 5 4 2 1 4 7 5 6 6 7 8 12 13 8 5 6 3 1 2 3 2 5 7 5 4 5 3 5 8 11 13 12 12 13 14 15 17 20 20 21 24 27 29 30 32 31 28 24 22 25 32 38 39 36 33 33 33 32 32 31 31 33 33 34 34 30 29 30 31 31 31 31 32 33 33 33 32 30 28 28
3 6 6 5 5 5 4 4 3 3 2 7 5 1 5 9 10 12 12 7 4 4 4 1 2 3 3 5 8 7 5 5 3 2 5 9 11 11 10 11 14 14 17 21 21 24 26 27 28 28 30 28 23 21 23 29 37 41 40 36 33 32 31 32 32 32 32 33 33 33 34 31 30 31 32 32 32 32 32 33 33 33 31 29 28 28
2 3 5 4 4 3 1 5 4 3 1 8 6 4 7 9 10 11 9 7 3 3 5 4 1 1 4 2 6 6 5 5 4 2 3 6 8 10 9 9 12 14 17 19 20 22 24 24 24 25 27 24 20 21 26 33 40 41 39 36 34 32 32 31 30 31 32 33 34 35 36 36 34 34 34 34 34 34 34 35 34 34 32 30 29 29
3 4 4 0 0 2 4 7 4 4 5 9 7 7 7 7 8 7 4 5 3 1 5 6 1 1 5 1 5 5 6 6 4 3 3 4 6 8 7 7 11 14 15 16 17 19 21 22 24 26 26 21 18 22 28 35 40 38 37 36 35 35 34 35 33 32 34 36 36 37 38 38 38 39 39 38 37 35 35 37 37 36 34 33 32 32
9 6 4 2 1 3 3 7 6 6 6 8 7 7 9 7 5 2 1 2 3 2 5 6 1 2 3 3 5 5 3 4 4 2 2 2 3 7 7 7 11 13 14 16 18 21 22 23 25 27 26 20 19 24 30 36 39 37 36 35 35 35 36 38 37 37 40 42 41 39 38 39 39 40 40 40 39 36 36 38 39 38 36 34 34 33
10 3 2 3 3 3 3 5 6 4 2 6 4 5 8 7 5 4 4 4 3 6 6 4 1 1 4 4 3 3 3 5 5 3 2 1 2 6 7 7 11 14 15 17 19 21 23 25 28 31 29 23 23 27 32 37 38 37 36 36 35 35 36 37 38 41 45 47 46 42 38 38 38 37 37 38 38 36 35 37 36 34 33 32 32 32
7 2 3 5 1 4 5 4 6 4 4 6 4 5 7 7 6 5 5 4 3 7 6 2 1 2 7 5 4 6 4 5 5 4 3 1 3 7 9 9 12 15 16 18 20 23 27 30 32 33 31 27 26 29 33 37 37 36 36 35 34 34 35 36 38 43 47 48 49 44 37 36 36 35 35 35 36 35 33 32 28 26 27 28 29 30
6 4 5 4 1 4 5 4 6 6 5 6 4 3 3 4 6 8 6 5 6 8 6 2 2 4 8 4 6 8 6 8 7 5 3 2 5 9 11 10 14 16 17 20 23 28 32 33 34 33 32 30 28 29 33 36 35 35 35 34 33 32 33 36 39 44 46 48 52 46 37 35 35 34 34 33 32 29 28 26 24 25 26 27 27 26
4 5 4 1 3 5 4 2 3 5 6 5 2 2 1 1 5 8 5 5 10 11 8 3 1 5 6 3 6 8 9 11 7 3 0 5 8 11 12 11 14 18 20 24 27 31 35 35 35 34 33 32 29 30 34 36 35 34 34 32 31 31 33 37 41 44 45 49 53 46 37 34 34 34 34 31 27 25 25 25 26 28 28 26 24 25
2 6 5 3 5 2 2 4 3 2 5 3 2 2 2 1 3 6 7 7 9 11 7 2 2 4 2 3 3 7 8 8 4 2 4 9 10 11 12 12 17 22 26 29 31 34 35 34 34 33 33 32 29 30 34 36 35 34 33 32 31 32 35 38 41 43 44 49 52 45 37 34 34 34 33 31 28 27 28 30 31 32 30 27 27 29
1 7 6 8 8 3 1 9 5 1 3 2 2 3 5 4 4 3 9 5 4 9 6 1 3 3 1 3 3 4 3 1 1 3 7 12 10 10 14 17 23 28 30 32 33 34 35 34 33 33 33 31 28 31 35 35 34 33 32 31 32 34 37 39 41 42 45 50 50 42 36 36 36 35 33 32 31 30 31 32 32 31 29 29 30 32
1 7 8 5 4 3 8 13 7 3 2 2 3 5 5 2 3 1 5 5 4 9 5 1 6 7 3 3 3 3 4 6 7 8 13 16 12 11 19 26 29 31 32 34 35 35 35 34 34 34 34 31 29 32 35 34 33 32 30 30 32 35 37 39 41 43 47 49 46 39 35 36 35 33 33 35 36 33 32 31 29 29 29 31 33 35
1 5 7 1 1 8 13 10 5 3 1 1 4 4 3 5 5 2 2 5 6 8 8 8 10 6 3 4 1 1 7 10 12 13 15 16 12 14 23 29 31 32 33 34 36 37 37 35 34 34 34 31 29 33 35 34 33 31 29 30 32 35 36 38 42 45 48 47 42 36 33 33 33 34 35 35 32 30 29 29 29 30 31 33 34 36
1 1 5 1 1 7 7 5 5 6 3 2 4 4 3 2 5 3 1 3 4 5 8 11 10 5 3 2 2 4 7 9 11 12 11 11 14 21 28 31 33 33 35 37 39 40 38 35 35 35 32 29 30 34 34 33 32 29 29 31 33 35 37 40 44 46 48 45 39 35 35 35 34 32 32 31 30 31 30 29 31 32 32 33 35 36
1 1 5 6 5 5 4 3 5 7 5 4 4 5 5 2 2 5 3 1 1 4 7 9 10 7 2 2 4 4 8 8 9 9 7 11 20 28 31 33 34 36 40 42 43 42 39 36 36 33 30 28 31 33 33 32 30 28 29 32 34 36 39 42 46 47 46 43 38 35 33 29 27 27 29 31 31 30 29 28 31 32 31 31 32 31
0 1 4 7 7 6 7 6 5 5 3 1 1 3 5 3 2 7 7 2 1 3 6 8 11 7 4 2 2 5 11 8 6 7 9 16 24 29 32 34 37 40 43 45 45 42 39 37 35 30 28 29 32 33 32 30 27 27 30 33 36 38 41 44 46 47 45 40 35 31 25 23 26 29 29 28 26 26 27 30 32 32 31 30 28 25
1 1 2 6 6 8 11 7 2 1 1 3 1 1 2 1 1 3 8 9 7 6 6 8 9 6 3 2 1 11 18 14 12 16 20 24 30 32 35 38 41 43 45 46 45 42 39 36 32 29 29 30 32 32 30 27 27 29 32 34 36 39 42 44 46 46 42 35 30 26 23 24 26 26 25 25 26 29 32 33 34 33 31 30 28 25
1 2 3 7 7 7 7 3 2 2 2 1 3 1 2 3 2 3 6 7 7 7 7 6 8 6 1 2 9 21 24 21 24 29 29 29 33 36 39 41 44 45 46 45 43 40 38 35 31 30 30 30 31 30 27 26 29 31 33 35 37 40 41 44 45 42 35 29 26 25 25 25 23 22 25 29 32 34 34 33 33 33 32 32 30 27
3 1 3 7 9 10 8 6 4 3 4 5 5 3 3 6 7 5 4 3 3 6 9 8 9 7 4 8 19 22 19 18 24 30 31 32 36 38 40 42 44 46 44 41 39 38 36 35 32 29 28 30 30 28 27 29 31 32 34 35 36 38 40 44 43 36 29 26 25 25 25 24 23 23 27 30 32 33 31 29 29 27 26 26 25 25
2 1 1 2 6 10 10 10 10 10 9 7 8 10 9 9 9 7 4 4 4 6 9 8 10 11 13 19 21 15 13 17 22 27 32 34 37 40 43 45 46 44 41 38 40 40 35 33 30 26 28 31 29 29 29 30 31 31 32 33 34 35 38 40 37 29 25 25 25 24 24 24 25 28 29 29 29 29 27 26 25 24 22 21 19 18
1 1 2 4 5 7 10 12 13 13 12 12 15 15 11 9 8 5 4 5 7 9 9 8 12 18 22 22 18 14 17 20 21 26 31 34 37 41 46 47 44 42 42 41 42 39 33 32 29 27 30 30 26 28 29 28 29 29 29 31 32 34 36 34 28 24 24 24 25 24 24 25 26 28 28 27 26 27 26 26 26 25 24 22 19 17
3 2 4 6 8 10 11 14 16 13 11 15 16 13 10 9 8 7 6 8 10 9 9 12 18 22 22 19 17 18 21 20 20 26 32 35 40 45 48 45 39 41 44 41 37 33 29 30 29 28 32 29 25 27 28 27 29 29 30 32 31 31 34 30 24 22 24 24 24 25 25 26 27 27 26 26 26 26 26 27 28 27 25 22 21 22
3 3 4 3 8 12 10 13 16 11 9 11 10 8 8 9 8 8 9 10 10 8 11 20 24 22 19 16 16 22 25 23 26 34 39 42 46 48 45 39 36 39 41 35 30 29 29 31 32 33 35 32 28 28 30 31 34 34 34 36 35 34 33 28 22 21 23 24 24 26 26 27 28 27 26 26 26 26 27 28 27 24 21 22 24 27
2 4 3 2 10 15 12 11 11 8 10 12 8 5 7 10 11 11 10 11 12 12 15 21 23 18 14 13 18 28 33 33 35 39 43 47 48 44 37 36 38 38 34 30 29 32 35 37 37 37 35 33 31 32 35 39 40 36 33 35 38 35 30 25 22 21 22 23 24 26 27 27 26 26 25 25 25 27 28 27 25 24 23 24 26 27
3 3 3 3 7 13 11 9 10 12 14 13 8 7 10 13 13 12 11 11 13 16 17 18 17 13 10 16 26 32 36 38 37 38 43 46 44 38 34 36 40 34 28 31 36 40 41 39 36 36 36 36 38 40 42 41 36 31 32 37 39 33 26 23 22 21 22 22 22 25 26 25 25 25 25 25 26 26 26 25 25 26 25 24 23 22
3 3 4 5 6 11 10 12 18 18 13 7 5 9 12 11 11 12 12 13 16 19 19 15 11 10 12 21 27 29 33 35 33 39 46 44 38 35 34 38 37 30 30 38 44 43 38 35 36 38 39 40 42 42 38 32 29 32 38 41 36 28 24 23 22 23 23 22 23 24 24 25 26 26 26 26 26 26 26 25 25 25 24 23 20 18
2 2 4 3 5 10 12 15 16 14 10 5 1 6 12 12 13 13 14 17 17 14 12 10 11 13 18 23 24 26 31 30 32 41 45 38 34 33 36 38 32 30 37 43 41 37 34 35 38 39 41 41 39 35 28 26 32 40 42 36 30 26 25 24 24 25 24 24 25 25 26 26 27 27 27 27 26 27 26 25 25 24 23 21 18 17
2 3 3 0 1 9 14 14 11 7 8 4 1 5 12 14 16 17 18 21 17 8 8 12 16 17 20 23 25 28 29 30 39 46 38 31 33 32 36 37 30 34 44 40 34 34 35 39 41 40 39 36 30 28 30 34 40 41 37 30 27 26 26 26 26 26 26 26 27 27 27 28 28 28 29 28 27 27 26 26 25 23 22 20 18 17
3 3 3 1 2 6 9 8 9 8 5 0 2 8 15 15 17 19 20 18 12 9 13 18 20 22 28 32 33 34 36 40 46 41 28 31 34 32 36 37 32 39 43 37 38 42 40 41 41 36 34 32 30 34 40 41 39 36 32 29 27 27 27 27 27 27 27 28 28 28 29 29 30 30 29 28 28 27 26 25 24 22 20 18 17 15
2 2 2 2 2 5 7 7 7 9 6 2 5 13 16 13 14 18 19 14 7 8 16 20 22 28 36 39 37 37 44 47 39 25 22 32 35 35 40 40 37 39 37 37 45 48 41 38 36 33 33 34 35 39 40 37 35 32 31 29 28 27 28 27 27 28 28 29 29 30 31 31 31 30 29 28 28 26 25 24 22 20 19 17 15 14
1 1 1 2 1 3 7 7 7 11 7 3 7 13 14 14 15 15 14 11 7 13 21 22 23 30 36 37 37 42 47 41 23 14 24 35 37 39 42 39 35 34 34 39 46 41 34 35 35 37 39 36 33 36 35 33 33 32 31 30 29 28 28 28 29 29 30 31 32 32 32 31 31 30 29 28 26 25 23 22 20 18 17 16 15 14
2 1 1 2 2 1 5 7 8 9 6 2 6 13 18 25 27 20 12 8 8 22 32 28 25 32 34 33 37 42 40 26 10 14 31 40 41 43 42 36 31 30 35 42 40 33 32 38 40 40 38 32 32 35 34 32 32 31 31 30 29 29 30 30 31 31 32 34 34 33 32 30 29 29 28 26 25 23 21 20 20 18 17 16 16 15
6 2 3 2 2 2 4 5 6 6 4 3 10 17 24 31 31 21 12 7 12 28 38 33 29 32 32 32 36 33 23 13 9 20 38 44 43 43 41 35 31 33 38 39 34 32 38 42 40 37 33 32 34 35 33 32 31 31 31 31 30 30 31 32 33 34 35 35 34 32 30 29 28 27 26 25 24 22 21 21 20 19 18 17 16 16
6 3 3 3 3 4 3 3 3 3 4 6 14 20 29 32 25 13 7 10 20 35 39 34 30 29 29 33 32 21 12 11 16 29 42 43 40 39 37 34 34 36 38 35 32 35 42 40 37 35 33 33 34 34 33 32 31 32 32 31 31 32 33 34 36 37 36 34 32 30 28 27 26 25 25 24 23 22 22 21 20 19 18 17 16 15
3 3 2 2 4 5 4 4 4 3 4 8 18 24 32 30 16 6 6 16 29 39 38 33 30 28 30 32 26 18 18 22 26 34 40 39 37 36 34 33 34 35 34 32 33 38 41 37 35 34 33 32 32 33 33 32 32 33 33 32 33 35 36 37 37 37 35 32 30 29 26 25 25 24 23 23 22 21 21 20 19 18 17 16 16 15
3 3 2 2 4 6 3 3 6 4 1 17 30 31 30 21 7 6 17 27 33 35 34 33 30 29 32 31 26 25 29 30 29 32 35 35 35 35 34 33 34 34 32 32 35 38 38 36 36 35 34 32 32 32 32 32 33 36 36 36 37 37 37 37 37 35 33 31 29 27 25 24 23 22 22 21 20 19 18 17 16 15 14 14 14 13
1 2 4 4 3 5 4 3 5 4 7 28 35 23 16 13 9 17 27 32 33 33 31 31 30 30 32 31 29 30 31 29 29 33 34 33 33 33 33 33 34 34 33 33 36 38 37 36 37 37 36 34 33 33 33 34 35 38 39 38 38 37 37 37 36 33 31 29 28 26 24 23 22 20 20 18 18 18 17 16 15 13 13 13 13 11
1 1 2 3 2 4 3 1 4 8 16 32 29 13 11 17 20 23 26 28 32 33 30 30 31 30 30 29 30 31 29 28 32 34 33 33 33 32 32 32 33 34 33 33 36 38 37 38 39 38 38 36 34 34 36 36 38 39 38 38 37 37 37 36 34 32 30 28 27 25 23 22 21 20 19 19 19 18 17 16 15 13 13 13 12 11
2 3 1 3 2 2 6 9 12 15 22 29 23 15 21 27 26 25 27 30 31 29 28 31 32 31 29 29 29 28 27 29 33 33 32 33 32 31 31 32 33 34 33 33 35 37 38 39 39 39 39 38 36 37 37 37 38 38 38 37 37 36 36 35 33 31 29 27 26 25 24 22 21 20 20 21 20 20 19 18 16 15 15 14 13 13
1 1 1 2 4 7 12 17 17 16 22 25 19 16 23 27 25 28 31 31 29 29 30 30 29 29 29 28 27 27 28 30 32 31 30 31 31 30 30 32 33 33 32 34 36 38 39 39 38 39 39 39 39 39 38 37 36 37 37 36 35 35 35 34 32 30 28 27 26 25 24 23 22 21 21 20 19 18 18 19 18 16 15 15 14 15
2 2 2 2 3 5 8 12 14 18 24 24 19 21 26 27 26 28 30 28 29 33 33 29 26 26 26 24 24 26 28 30 30 29 30 31 31 30 31 32 33 32 32 34 36 38 39 39 39 39 40 40 40 40 39 37 35 35 35 35 35 35 34 32 31 30 28 27 26 25 25 25 24 22 21 21 20 19 17 16 15 15 16 16 16 17
3 4 3 2 2 4 9 14 17 21 20 16 16 24 28 28 29 31 30 28 28 31 30 27 26 27 27 24 24 26 28 29 28 28 31 32 30 30 32 33 32 32 33 35 36 37 38 37 38 39 39 40 40 39 38 36 35 34 34 34 34 34 33 31 30 28 27 27 26 25 26 26 25 23 21 20 20 20 19 18 16 15 15 15 17 19
4 5 3 4 5 6 10 12 17 19 14 14 21 28 29 30 33 34 32 30 29 30 28 25 27 28 26 24 24 25 28 29 27 28 32 32 30 30 32 32 32 32 34 36 37 36 36 36 36 38 39 39 39 39 37 36 34 34 34 33 34 33 33 31 29 27 27 27 26 25 25 25 24 24 23 20 18 16 16 17 18 17 14 13 15 18
2 2 3 4 5 5 6 10 16 13 10 17 26 29 29 30 32 33 33 32 31 29 26 25 28 30 28 26 26 26 28 29 29 29 31 31 30 31 31 32 33 33 35 36 36 35 34 33 34 37 38 38 38 38 37 36 35 34 33 33 32 32 31 31 29 28 27 26 26 26 26 25 24 24 25 24 22 18 14 13 12 13 15 14 13 13
1 3 2 2 3 8 13 17 18 14 15 20 26 27 27 28 28 30 32 32 30 29 26 26 30 32 32 32 29 27 27 29 29 29 30 30 31 30 30 32 33 34 35 36 35 35 34 33 34 36 38 38 38 38 37 36 35 34 33 32 32 30 29 29 29 29 28 26 26 26 26 26 25 25 24 25 25 24 21 16 11 8 10 12 11 11
Wind_Direction
33 47 43 329 286 294 282 216 190 220 183 226 284 256 267 277 275 272 270 281 1 345 272 244 350 0 5 359 42 106 113 111 109 107 102 96 84 76 79 78 73 67 55 35 16 11 6 1 0 359 1 1 350 339 335 333 333 334 335 336 337 337 334 329 324 321 323 327 328 326 323 321 317 312 308 301 297 295 293 292 291 289 287 285 282 278
45 54 344 271 257 265 291 211 168 286 157 345 302 283 288 275 277 275 265 286 12 28 283 51 47 12 8 7 53 105 107 104 107 106 101 95 81 69 73 72 64 56 40 23 10 7 4 0 360 356 356 353 341 336 336 337 339 341 343 341 339 338 334 326 319 318 322 326 327 326 324 321 316 313 310 306 302 296 292 290 288 287 284 281 279 275
33 25 278 285 268 181 37 70 101 22 359 328 314 304 300 287 292 286 254 260 34 6 299 49 76 15 12 33 49 86 101 105 103 102 98 92 78 66 69 65 54 43 28 18 7 4 3 360 357 352 350 347 340 340 342 344 347 346 347 344 340 338 334 329 324 322 323 322 322 322 320 316 312 310 308 305 302 294 289 287 285 282 280 278 275 270
15 287 279 338 33 91 21 15 44 21 356 307 311 310 290 301 320 299 285 287 305 252 277 33 88 66 38 60 45 66 104 111 104 98 93 85 76 69 68 59 47 36 23 15 6 3 2 357 352 348 347 345 344 346 349 350 350 349 348 343 339 338 333 330 328 327 326 323 323 319 313 309 306 306 306 305 302 297 292 290 290 289 287 286 283 277
267 273 304 20 30 53 11 350 28 10 333 293 278 260 267 295 275 263 290 303 309 271 247 79 88 161 143 110 89 98 113 112 107 102 94 82 73 70 67 55 41 33 22 11 4 2 359 352 348 347 346 346 347 351 352 354 353 350 347 342 340 339 330 326 328 330 329 326 325 318 308 306 307 306 305 306 307 305 301 297 296 296 295 296 295 290
283 293 335 347 6 44 43 341 6 6 331 307 271 231 240 285 282 274 295 310 319 308 291 78 345 268 165 171 178 181 159 126 112 100 96 83 70 63 58 47 34 28 18 8 5 1 355 350 347 346 347 347 348 352 353 352 350 346 341 336 335 334 329 326 328 329 329 327 325 319 311 305 308 310 308 310 312 311 307 303 301 299 299 299 297 293
290 336 30 67 20 32 33 345 299 136 352 312 258 205 236 282 290 289 299 309 304 289 291 57 264 253 203 206 203 198 186 165 133 95 93 81 65 53 49 39 28 20 9 4 3 358 353 351 348 345 346 346 347 348 344 342 342 341 338 334 331 332 332 332 331 330 330 329 326 323 317 305 301 307 308 308 311 310 307 303 302 300 299 299 295 291
294 344 11 44 32 28 19 333 264 165 355 287 246 176 296 294 288 288 295 284 261 294 310 285 182 226 249 212 193 185 183 189 174 118 95 79 61 46 41 32 22 12 3 1 359 355 353 351 348 344 342 343 341 338 335 336 340 340 338 335 332 333 334 334 334 333 332 331 327 323 321 312 305 308 308 305 304 304 304 302 300 298 296 296 295 292
250 335 336 355 7 10 323 292 265 156 216 271 276 306 289 276 274 276 284 278 279 1 304 289 83 249 265 188 167 183 198 208 191 156 112 84 59 36 32 24 14 4 359 359 355 352 351 349 346 341 341 341 333 330 333 336 338 338 337 335 333 332 333 333 333 331 329 327 325 321 320 317 311 309 309 307 303 299 299 299 297 295 291 290 292 293
284 281 276 253 294 252 259 286 277 167 231 284 307 310 287 271 270 266 272 294 333 50 266 276 57 214 271 186 163 206 227 218 191 156 137 101 57 24 18 8 360 356 353 353 350 350 349 347 345 342 343 337 323 324 331 335 337 336 336 335 332 331 332 334 333 330 328 326 322 319 317 314 310 308 306 306 305 299 296 294 293 292 288 286 287 289
315 299 237 177 231 250 266 296 290 205 247 320 342 326 314 299 290 299 54 9 355 298 251 255 200 112 290 233 178 208 210 168 163 166 175 138 40 7 356 344 345 346 345 347 348 348 347 345 343 344 343 333 318 321 328 334 336 335 334 333 331 329 330 333 332 330 330 329 325 317 311 308 307 306 304 302 302 298 293 290 287 285 283 282 284 286
331 338 195 275 300 354 332 304 301 247 288 357 355 335 333 324 330 352 6 33 355 295 270 243 208 109 260 256 187 185 146 126 142 168 192 226 333 344 333 320 333 340 341 344 344 344 344 342 342 343 341 331 319 320 327 333 334 333 332 331 328 327 328 329 328 327 328 329 328 321 312 309 305 304 303 300 297 295 290 284 281 280 279 278 281 283
326 264 299 309 324 25 1 322 321 325 12 359 340 360 352 332 334 329 330 344 279 277 274 244 2 272 260 263 162 162 169 154 151 150 157 226 301 325 322 315 331 338 337 339 339 341 342 341 340 339 336 328 318 317 325 331 332 330 329 328 325 323 325 325 324 324 325 327 329 324 315 312 309 305 303 299 297 293 284 278 277 281 281 281 282 284
323 293 329 337 333 15 34 31 339 328 342 334 328 7 347 327 320 309 313 310 281 281 279 277 9 284 282 277 163 161 168 161 147 140 154 293 304 316 320 317 326 331 332 335 337 340 341 338 335 333 331 325 315 314 323 328 328 327 326 325 322 320 321 321 321 322 323 324 327 324 315 311 310 307 305 305 300 287 274 271 275 282 287 288 286 284
328 308 318 348 316 354 42 67 296 293 305 300 187 147 325 318 303 300 302 301 297 296 298 334 351 255 282 301 151 153 154 148 129 112 291 307 304 315 317 310 319 328 331 335 336 338 336 332 329 327 326 323 313 312 321 325 325 325 323 321 318 317 318 318 319 321 321 322 325 323 312 306 306 304 304 304 296 280 273 278 282 287 291 288 283 279
281 277 260 284 305 336 42 322 307 315 307 287 143 84 337 226 250 282 279 278 292 296 297 318 263 223 266 318 136 144 151 139 99 30 314 305 305 313 310 308 324 332 334 334 334 333 330 325 323 321 321 319 310 311 319 322 323 322 320 318 315 314 314 316 317 318 319 321 323 319 309 301 301 301 300 300 296 290 290 293 292 292 289 280 276 277
322 279 278 319 314 170 73 325 313 285 310 326 22 322 285 232 180 261 288 295 317 302 293 221 276 288 330 282 199 173 188 138 5 316 311 313 313 311 316 328 334 334 333 332 330 327 323 319 318 317 318 314 307 312 318 320 320 319 316 314 312 312 313 315 316 317 318 321 321 315 304 298 298 298 295 292 291 294 297 296 291 286 279 271 271 274
226 285 290 320 304 283 335 323 287 244 326 350 315 298 290 261 138 150 297 314 318 293 286 204 291 301 311 287 217 212 310 337 331 327 330 334 335 325 330 336 333 330 329 327 326 323 319 317 315 315 316 311 307 313 317 318 318 316 312 311 310 311 313 314 315 317 319 321 320 312 302 299 297 294 291 289 288 289 289 287 281 274 271 270 271 275
153 296 306 9 261 307 334 340 308 310 43 205 276 309 1 341 328 355 311 306 307 293 292 297 298 297 273 274 249 337 339 337 329 333 337 338 338 328 330 331 327 326 326 324 324 322 318 315 313 314 314 309 308 314 317 317 316 313 309 308 309 311 313 314 316 318 319 320 318 309 300 296 292 290 291 293 291 286 284 281 278 277 277 278 279 280
123 274 297 305 348 313 335 5 334 323 340 340 324 341 28 330 302 305 240 297 312 297 294 298 303 306 263 272 37 8 334 325 323 332 334 326 324 324 326 326 325 326 326 325 324 320 317 314 312 313 311 308 311 316 317 315 313 310 307 307 309 312 313 315 318 319 320 319 313 305 298 293 291 291 291 290 289 288 289 287 285 285 286 287 288 287
53 181 269 290 332 340 338 332 309 307 311 342 360 340 333 328 305 313 297 230 358 298 300 302 299 303 320 52 60 351 324 320 315 318 312 308 318 323 324 325 327 328 327 325 323 319 316 313 312 312 310 311 315 317 317 314 311 307 305 308 312 315 315 317 320 321 319 316 311 306 303 298 295 296 296 294 292 291 290 288 287 290 290 292 292 290
81 181 260 294 324 327 303 280 264 274 265 236 6 320 303 287 329 330 311 297 346 294 289 294 292 302 355 58 101 337 334 334 310 301 304 312 318 322 326 328 329 328 325 324 322 319 316 314 313 312 312 314 316 318 318 313 307 305 308 313 317 318 319 319 321 321 318 315 311 308 305 299 297 299 299 296 292 290 291 291 293 293 292 290 287 282
149 116 271 288 290 282 290 301 340 341 168 163 192 288 279 273 44 335 304 308 311 288 274 277 281 302 360 138 230 328 338 350 348 333 324 323 326 328 330 330 328 325 323 322 321 320 318 316 314 314 316 317 320 322 319 311 307 309 313 319 321 321 321 321 321 321 318 314 311 308 303 301 302 300 297 295 296 298 299 298 297 295 292 288 283 276
31 76 327 306 296 285 293 333 53 26 20 332 305 328 336 324 312 250 271 299 298 291 303 292 282 308 47 192 305 327 343 354 345 335 329 326 330 332 330 327 325 323 322 322 323 322 321 319 317 318 320 323 325 324 317 311 311 315 319 322 322 321 320 321 322 320 317 312 310 309 306 305 304 299 298 300 301 303 303 300 299 297 293 290 284 274
332 338 357 329 322 326 331 335 324 321 345 330 310 319 331 326 325 303 288 322 287 299 329 318 292 310 334 314 320 332 350 347 332 331 332 330 330 329 326 324 322 322 323 325 326 325 323 321 320 324 329 331 330 324 317 316 317 319 322 322 323 322 320 322 323 319 315 312 310 310 308 306 305 302 303 304 302 303 305 304 302 299 295 293 284 273
308 260 29 343 318 321 322 323 323 324 330 325 314 320 334 341 339 330 327 342 312 309 330 316 293 308 319 321 326 338 348 336 328 332 333 330 328 326 324 324 324 325 328 331 330 329 331 332 330 334 338 334 330 325 321 321 322 322 322 322 323 322 321 323 323 317 314 314 312 310 309 308 307 305 304 304 304 307 309 308 306 304 303 304 295 279
84 270 238 210 237 273 287 294 302 312 316 310 312 324 340 349 355 4 354 332 316 311 312 303 304 312 316 323 334 346 343 335 332 331 329 327 327 326 326 326 329 335 336 334 334 337 344 346 340 339 340 334 328 327 325 323 325 324 323 323 323 322 323 324 321 315 314 315 313 312 310 309 310 309 310 309 308 309 308 306 305 301 300 305 301 284
89 322 268 227 236 251 269 286 295 304 301 295 308 332 352 353 7 22 351 319 322 319 308 314 317 313 315 329 345 345 339 335 330 327 325 326 328 328 329 330 336 342 339 337 340 345 351 351 344 343 344 337 329 329 329 328 329 328 325 323 323 325 327 324 318 315 316 316 315 314 312 313 314 314 314 312 310 308 305 303 303 299 293 296 296 286
115 264 263 265 282 277 279 286 291 296 284 288 318 353 353 348 360 359 331 314 320 313 301 313 317 314 319 338 347 339 334 331 325 323 324 329 331 331 334 339 343 342 339 342 351 354 353 350 344 340 339 334 327 330 334 334 332 329 325 324 326 328 328 324 317 316 317 316 316 317 317 318 319 317 315 312 308 306 305 305 307 303 295 292 291 287
96 261 267 318 296 297 300 287 287 302 303 310 336 7 352 347 345 337 323 312 310 300 297 308 313 315 326 343 336 329 328 325 321 325 330 332 332 334 341 347 345 342 346 355 358 354 347 341 337 335 336 337 337 338 336 333 330 327 325 328 331 330 328 324 320 318 319 317 317 319 320 320 319 316 313 310 308 307 309 309 309 307 301 293 289 287
47 285 319 32 311 305 307 302 313 323 315 316 336 360 354 346 337 330 325 320 315 309 310 316 316 315 329 333 325 323 325 325 326 333 336 333 334 341 350 350 344 346 358 360 352 345 340 338 340 343 344 343 341 337 333 330 329 329 330 331 332 330 327 326 324 322 321 319 318 320 321 320 318 316 314 312 311 310 310 309 306 304 303 301 297 294
35 305 332 27 334 306 315 331 329 320 315 324 349 350 346 339 332 331 330 331 328 322 325 332 328 320 328 329 324 324 328 329 336 341 336 333 342 352 355 350 347 352 359 353 345 343 344 346 347 346 343 339 335 333 332 333 334 335 335 335 334 333 331 329 327 325 323 322 322 321 320 319 318 317 316 315 313 312 310 307 307 307 310 312 311 306
62 344 327 2 327 304 316 328 318 309 324 346 354 342 340 336 337 336 331 333 333 330 334 340 332 325 327 327 327 329 333 338 345 340 333 338 355 0 354 349 348 353 352 346 343 346 348 347 344 341 338 336 334 336 339 340 338 337 337 338 339 338 335 331 329 328 326 325 324 322 321 321 320 319 318 318 318 317 315 315 316 319 321 321 319 316
33 10 319 257 287 299 309 316 311 321 347 344 139 18 352 344 346 341 334 335 338 351 357 337 327 325 327 330 332 332 335 341 340 333 333 353 4 357 349 347 347 350 348 344 346 349 346 343 341 339 340 341 343 346 342 337 336 338 341 343 342 339 336 333 332 330 328 326 325 324 324 323 323 323 323 325 327 325 325 326 327 329 330 329 327 326
342 353 312 229 216 282 298 327 339 338 340 221 116 13 356 349 346 336 330 333 340 358 354 338 328 328 330 332 334 333 333 334 333 330 339 2 2 351 348 347 344 346 346 344 347 346 343 343 344 344 348 349 344 339 336 336 339 343 346 345 340 337 338 336 333 331 329 328 327 327 326 328 330 330 331 334 334 332 333 334 335 337 337 335 334 335
310 359 315 274 275 304 325 357 338 305 303 68 29 356 351 349 345 336 331 332 350 4 350 337 329 331 333 333 335 336 331 329 329 332 350 1 358 353 351 346 341 344 346 344 344 343 344 348 349 347 346 342 337 336 338 342 346 346 344 343 340 339 339 337 334 333 331 329 329 330 333 336 337 336 337 339 338 337 339 340 342 344 343 342 345 350
266 74 13 336 343 331 326 320 291 284 297 36 13 349 347 347 347 344 329 323 358 5 348 336 331 333 335 336 338 337 332 327 326 341 354 356 355 351 349 345 341 342 342 341 343 345 348 350 346 341 340 339 339 342 345 347 346 344 342 342 341 340 339 338 336 334 332 332 334 337 340 342 342 340 341 343 343 343 346 347 349 352 352 353 360 8
59 107 104 345 336 12 330 315 315 316 318 360 339 338 353 352 344 335 314 302 359 358 346 338 334 336 337 338 340 337 333 330 329 339 345 348 348 346 345 343 343 343 340 341 345 347 346 343 341 340 342 344 345 346 347 346 345 344 344 343 342 341 339 339 338 336 335 337 341 344 345 346 345 344 345 347 347 349 352 354 357 1 5 7 11 17
38 58 116 90 305 335 339 314 312 308 298 342 337 342 358 352 335 322 312 317 353 351 343 339 338 339 340 339 339 339 337 336 329 331 338 341 342 343 342 342 346 345 342 345 349 345 340 340 342 346 348 348 347 347 347 346 345 345 345 344 343 341 339 338 340 341 341 342 345 348 349 349 349 349 350 350 351 354 357 360 2 7 13 16 16 17
18 6 46 38 304 298 299 275 281 268 267 333 344 349 354 345 331 330 334 329 342 344 341 340 340 341 341 338 337 340 342 333 321 322 330 334 336 339 340 342 346 345 343 347 348 341 340 344 348 350 350 348 347 346 346 346 346 345 345 344 343 343 341 341 343 345 345 346 349 351 353 354 354 354 355 355 356 0 2 3 6 8 11 12 12 13
1 341 14 5 306 308 286 265 300 274 254 336 349 356 356 346 340 15 347 321 333 337 336 340 341 339 340 339 337 335 327 320 316 318 325 331 333 336 339 342 343 343 344 345 342 340 344 349 351 350 348 347 346 346 346 347 346 346 346 346 346 346 346 346 347 348 349 350 353 355 357 359 359 359 1 2 1 4 6 6 6 5 4 3 1 4
360 336 329 319 319 327 308 288 312 274 300 1 355 358 4 2 354 342 325 322 330 332 333 338 340 338 338 337 333 329 323 319 320 324 329 333 335 336 339 341 342 344 345 342 340 344 350 351 350 349 349 349 347 346 348 347 347 350 351 349 348 349 349 349 349 350 351 353 356 359 1 3 4 4 6 6 5 4 5 6 5 2 359 356 354 358
338 305 322 322 323 325 314 330 333 293 1 4 357 357 17 16 334 323 325 324 328 333 336 338 338 337 338 334 329 327 324 323 328 331 332 335 337 338 339 342 343 345 346 344 344 348 351 349 349 352 353 353 350 349 351 351 350 353 353 350 351 351 350 350 351 352 354 356 359 1 4 7 9 9 8 9 9 7 6 7 6 3 358 355 356 3
208 148 321 305 334 357 345 353 315 303 341 356 353 345 355 347 333 331 332 327 329 336 339 337 334 334 336 332 327 327 326 329 333 335 336 338 338 339 341 343 343 344 345 345 345 348 350 350 351 353 356 357 355 354 356 355 353 354 354 352 352 352 351 353 354 355 358 359 1 4 6 9 12 11 10 12 12 10 9 9 8 5 2 4 9 16
175 135 240 253 250 261 239 253 282 304 332 344 341 334 339 338 334 337 337 332 332 336 339 336 331 332 335 333 328 328 330 333 335 337 338 337 337 340 342 342 344 345 344 344 346 349 351 352 353 353 356 1 0 358 359 358 355 354 354 354 355 354 353 354 356 358 1 2 3 6 7 10 14 15 15 15 13 11 9 8 8 7 6 11 20 22
198 46 341 274 274 265 258 268 286 311 330 332 330 336 339 336 336 338 339 337 334 332 336 335 330 330 334 333 331 331 332 334 336 338 338 337 337 340 341 342 344 345 344 345 348 351 352 353 354 355 357 1 2 0 359 359 358 356 355 356 357 357 355 356 358 0 2 3 6 8 8 11 14 16 18 18 17 15 12 8 6 4 6 14 21 20
307 342 323 268 291 303 291 289 303 323 327 325 330 340 339 337 337 338 339 339 332 330 335 336 332 332 334 334 334 333 332 335 338 339 338 339 339 340 342 343 345 346 345 347 350 352 353 354 356 356 357 359 0 360 359 359 360 359 357 358 359 358 357 358 360 1 4 5 7 9 10 12 13 14 16 17 17 17 16 13 9 7 8 14 17 17
289 309 307 259 276 280 264 275 303 321 318 317 333 341 340 338 334 333 338 338 332 332 337 340 338 339 340 339 337 335 334 338 342 339 339 341 341 342 343 343 344 345 347 351 353 355 355 355 356 356 357 357 357 358 359 360 2 1 0 0 0 359 358 359 1 3 5 7 8 9 12 14 14 13 15 16 16 15 13 11 11 12 15 16 14 11
279 301 293 270 282 268 253 284 327 335 323 326 338 339 339 336 329 329 336 338 336 339 343 343 345 348 348 344 340 338 339 341 343 341 340 343 344 343 344 346 347 348 350 353 356 356 356 356 357 357 357 356 357 358 359 1 3 3 3 2 1 360 359 359 2 5 7 8 10 11 12 15 15 15 16 17 19 23 21 16 11 11 17 22 18 11
295 287 281 295 312 302 290 328 347 340 313 323 332 333 333 329 324 329 337 339 342 346 345 343 347 353 355 350 345 344 342 342 342 342 343 347 348 346 347 350 351 351 353 355 355 356 358 359 359 358 357 357 358 359 1 2 3 3 4 4 2 1 0 359 0 5 7 9 10 10 11 13 15 17 18 17 17 22 32 36 27 17 20 23 18 12
214 219 253 290 272 281 298 320 333 324 308 316 324 326 326 323 324 333 339 341 346 350 348 346 350 355 356 353 350 349 345 342 342 344 347 351 352 350 352 355 354 354 354 355 356 357 359 1 2 0 359 358 360 1 2 3 4 3 4 5 4 2 2 0 0 3 5 7 9 10 11 12 13 16 19 19 18 17 21 32 45 44 33 23 9 3
Height
1529 1529 1533 1535 1535 1536 1536 1537 1536 1534 1535 1534 1534 1534 1532 1530 1524 1519 1514 1509 1509 1508 1504 1504 1505 1510 1512 1509 1508 1508 1506 1507 1510 1511 1513 1515 1516 1517 1517 1517 1517 1517 1518 1518 1517 1517 1516 1515 1513 1511 1509 1508 1506 1505 1503 1501 1499 1497 1495 1493 1491 1489 1488 1486 1484 1482 1480 1478 1476 1473 1472 1470 1470 1469 1468 1467 1466 1466 1465 1464 1463 1462 1462 1461 1461 1461
1531 1532 1536 1538 1537 1538 1537 1538 1538 1536 1535 1534 1533 1532 1531 1529 1521 1514 1512 1509 1509 1509 1505 1503 1509 1515 1515 1512 1512 1510 1508 1510 1511 1511 1513 1514 1515 1516 1516 1516 1516 1517 1516 1516 1515 1514 1513 1512 1510 1508 1506 1505 1503 1501 1500 1498 1496 1494 1492 1491 1489 1487 1485 1484 1482 1480 1478 1476 1473 1471 1469 1468 1467 1466 1464 1463 1462 1462 1461 1460 1460 1459 1458 1458 1457 1457
1534 1535 1538 1538 1538 1539 1538 1538 1537 1535 1534 1533 1533 1533 1529 1526 1518 1509 1507 1508 1510 1509 1504 1503 1512 1519 1518 1515 1515 1513 1511 1513 1512 1511 1512 1513 1514 1515 1515 1515 1515 1515 1515 1514 1513 1512 1511 1509 1507 1506 1504 1503 1501 1499 1497 1495 1494 1492 1490 1488 1486 1484 1483 1481 1480 1478 1475 1473 1471 1469 1467 1465 1464 1462 1461 1460 1459 1458 1457 1457 1456 1456 1455 1454 1453 1453
1536 1538 1538 1538 1538 1537 1535 1536 1536 1534 1534 1532 1532 1532 1526 1524 1523 1513 1504 1505 1509 1509 1505 1505 1516 1522 1520 1518 1518 1517 1515 1514 1513 1512 1512 1512 1513 1514 1514 1514 1514 1514 1513 1512 1511 1509 1508 1507 1505 1503 1502 1500 1498 1496 1494 1493 1491 1488 1487 1485 1483 1481 1480 1478 1477 1474 1472 1470 1468 1467 1465 1463 1461 1459 1458 1457 1456 1455 1454 1453 1453 1452 1451 1450 1449 1449
1538 1539 1538 1539 1538 1536 1534 1534 1535 1535 1534 1533 1531 1529 1524 1522 1525 1519 1511 1507 1505 1506 1505 1507 1515 1520 1521 1520 1520 1520 1517 1515 1515 1513 1512 1512 1512 1513 1513 1513 1513 1512 1511 1510 1508 1507 1506 1505 1503 1502 1500 1498 1495 1494 1492 1490 1487 1485 1483 1481 1479 1478 1477 1474 1473 1471 1469 1467 1465 1464 1462 1460 1458 1456 1454 1452 1451 1451 1450 1449 1448 1448 1448 1447 1446 1445
1538 1539 1538 1538 1537 1536 1535 1534 1536 1537 1536 1535 1528 1524 1523 1521 1522 1521 1517 1513 1506 1502 1503 1505 1508 1512 1520 1522 1520 1520 1518 1516 1515 1514 1513 1512 1512 1513 1512 1512 1511 1510 1509 1508 1507 1506 1504 1503 1502 1499 1498 1495 1493 1491 1490 1487 1485 1483 1482 1480 1477 1475 1474 1471 1470 1468 1466 1464 1462 1461 1459 1456 1454 1452 1450 1449 1447 1446 1445 1445 1444 1444 1443 1443 1442 1442
1539 1539 1539 1538 1537 1537 1535 1534 1537 1538 1538 1535 1526 1522 1524 1523 1523 1519 1516 1517 1511 1503 1502 1504 1505 1509 1518 1521 1518 1518 1518 1516 1515 1514 1513 1512 1511 1511 1511 1510 1509 1508 1507 1506 1505 1504 1503 1501 1499 1497 1495 1493 1491 1489 1488 1486 1484 1483 1481 1478 1476 1474 1472 1470 1468 1466 1464 1461 1459 1457 1455 1453 1451 1449 1447 1446 1445 1443 1442 1441 1440 1439 1439 1439 1438 1437
1540 1538 1538 1539 1538 1536 1536 1536 1536 1537 1538 1532 1523 1524 1525 1522 1521 1517 1515 1517 1512 1506 1503 1501 1503 1506 1508 1510 1513 1516 1516 1514 1514 1514 1512 1511 1510 1510 1510 1509 1508 1507 1505 1503 1502 1501 1500 1498 1497 1495 1493 1492 1490 1488 1486 1484 1483 1481 1479 1477 1474 1472 1469 1467 1465 1463 1461 1458 1456 1454 1451 1449 1447 1445 1444 1442 1442 1440 1439 1437 1436 1436 1435 1435 1434 1433
1540 1539 1538 1539 1539 1537 1536 1536 1536 1537 1536 1527 1522 1525 1525 1521 1519 1515 1514 1513 1511 1512 1506 1498 1502 1504 1499 1503 1511 1515 1515 1513 1512 1513 1511 1509 1510 1509 1508 1507 1506 1505 1503 1501 1500 1499 1498 1497 1496 1495 1492 1491 1488 1486 1484 1483 1481 1478 1476 1473 1471 1469 1466 1464 1462 1459 1457 1455 1453 1450 1448 1445 1443 1442 1440 1438 1437 1436 1435 1434 1433 1432 1431 1431 1430 1429
1540 1540 1539 1540 1539 1537 1536 1535 1535 1536 1533 1526 1524 1523 1520 1519 1515 1513 1515 1513 1512 1514 1506 1498 1502 1504 1499 1503 1514 1515 1511 1509 1509 1510 1509 1508 1508 1508 1506 1505 1503 1502 1501 1500 1499 1497 1496 1495 1494 1492 1490 1488 1486 1484 1482 1480 1478 1476 1473 1470 1467 1465 1462 1459 1457 1455 1453 1452 1450 1448 1445 1443 1440 1438 1436 1434 1433 1432 1432 1430 1429 1428 1427 1426 1425 1425
1541 1539 1539 1539 1538 1536 1536 1535 1533 1533 1531 1527 1525 1522 1517 1514 1511 1512 1517 1515 1512 1509 1502 1499 1502 1506 1504 1500 1505 1508 1504 1503 1506 1507 1507 1507 1507 1506 1504 1503 1502 1500 1499 1497 1495 1494 1493 1492 1491 1489 1487 1485 1483 1481 1480 1477 1475 1473 1470 1467 1464 1462 1459 1456 1454 1452 1450 1448 1446 1444 1442 1439 1437 1434 1432 1430 1428 1428 1427 1426 1425 1424 1423 1422 1421 1420
1541 1538 1538 1538 1537 1537 1536 1534 1531 1531 1532 1529 1528 1527 1521 1514 1511 1512 1514 1517 1517 1509 1501 1501 1504 1509 1507 1495 1495 1503 1503 1502 1505 1505 1505 1505 1505 1504 1503 1501 1500 1498 1496 1494 1492 1490 1489 1488 1487 1485 1483 1482 1480 1478 1476 1474 1471 1469 1467 1464 1462 1459 1457 1455 1452 1450 1447 1445 1442 1440 1437 1435 1433 1431 1429 1426 1424 1423 1423 1422 1421 1419 1418 1417 1416 1415
1540 1537 1538 1537 1537 1538 1536 1534 1531 1529 1529 1530 1530 1531 1531 1528 1525 1522 1519 1521 1521 1511 1501 1502 1507 1507 1498 1489 1494 1502 1502 1502 1503 1503 1504 1504 1503 1502 1501 1499 1497 1495 1493 1491 1489 1487 1485 1484 1482 1481 1480 1478 1477 1475 1473 1470 1468 1466 1464 1461 1459 1456 1454 1452 1449 1447 1444 1441 1439 1436 1433 1431 1429 1427 1425 1422 1420 1419 1418 1417 1416 1415 1413 1412 1411 1410
1543 1536 1539 1537 1536 1538 1538 1538 1538 1533 1531 1532 1533 1534 1538 1541 1540 1535 1528 1525 1519 1507 1498 1501 1509 1505 1491 1487 1496 1500 1500 1502 1502 1503 1504 1503 1502 1501 1498 1497 1495 1493 1492 1489 1486 1483 1481 1480 1479 1478 1477 1475 1473 1471 1469 1467 1465 1463 1461 1459 1456 1454 1451 1449 1446 1443 1440 1437 1435 1432 1429 1428 1425 1423 1420 1418 1416 1414 1414 1413 1411 1410 1409 1408 1407 1406
1554 1542 1539 1538 1538 1539 1539 1542 1544 1539 1534 1534 1534 1535 1537 1541 1544 1540 1532 1530 1523 1508 1502 1505 1509 1501 1490 1490 1498 1499 1500 1502 1503 1503 1504 1502 1501 1500 1497 1496 1494 1491 1489 1486 1482 1480 1478 1478 1476 1475 1473 1471 1469 1467 1465 1463 1461 1459 1457 1455 1453 1450 1448 1446 1443 1440 1436 1433 1430 1427 1425 1424 1422 1419 1416 1414 1412 1411 1409 1408 1407 1405 1405 1404 1402 1401
1563 1549 1541 1540 1540 1541 1541 1540 1541 1539 1535 1534 1533 1534 1535 1536 1538 1535 1529 1527 1525 1515 1509 1507 1502 1497 1498 1499 1500 1501 1502 1502 1503 1503 1503 1501 1500 1499 1497 1495 1492 1489 1485 1483 1480 1478 1477 1476 1474 1472 1470 1467 1465 1463 1461 1459 1457 1455 1453 1451 1449 1447 1444 1442 1439 1436 1433 1430 1426 1423 1421 1419 1417 1415 1412 1410 1409 1407 1405 1403 1402 1401 1400 1399 1398 1397
1568 1551 1541 1542 1540 1539 1542 1540 1539 1540 1536 1535 1534 1533 1533 1532 1534 1536 1528 1522 1526 1523 1511 1502 1498 1498 1502 1503 1501 1502 1502 1501 1503 1503 1502 1501 1499 1498 1496 1492 1489 1486 1483 1481 1479 1477 1475 1473 1471 1469 1467 1464 1462 1460 1458 1456 1454 1452 1449 1447 1445 1442 1440 1437 1435 1432 1428 1425 1421 1418 1416 1414 1412 1410 1408 1406 1404 1402 1401 1399 1397 1396 1395 1394 1393 1392
1577 1558 1542 1544 1542 1539 1542 1540 1537 1540 1538 1538 1539 1534 1532 1532 1533 1537 1534 1530 1534 1528 1508 1497 1499 1500 1499 1499 1500 1503 1503 1502 1502 1500 1498 1498 1496 1494 1492 1488 1486 1484 1483 1481 1478 1476 1473 1470 1468 1466 1463 1461 1459 1457 1454 1452 1450 1448 1446 1444 1441 1438 1435 1433 1430 1427 1424 1420 1416 1413 1411 1409 1407 1405 1403 1401 1399 1397 1396 1394 1392 1391 1389 1388 1388 1387
1582 1565 1545 1545 1547 1542 1541 1540 1537 1538 1538 1540 1539 1536 1537 1538 1535 1538 1543 1542 1540 1531 1512 1499 1501 1501 1497 1496 1500 1504 1505 1504 1501 1498 1496 1495 1493 1492 1489 1487 1486 1483 1482 1479 1476 1474 1471 1468 1465 1462 1460 1457 1455 1453 1451 1448 1446 1444 1442 1440 1437 1434 1431 1428 1425 1422 1419 1415 1412 1408 1406 1404 1402 1400 1398 1396 1394 1392 1391 1389 1387 1386 1384 1383 1383 1382
1580 1573 1555 1546 1548 1546 1542 1541 1541 1539 1539 1540 1538 1538 1541 1542 1541 1542 1543 1540 1539 1537 1525 1508 1502 1502 1497 1496 1502 1507 1507 1505 1501 1498 1497 1496 1494 1492 1489 1486 1484 1481 1479 1477 1474 1471 1467 1464 1462 1459 1456 1454 1452 1450 1447 1445 1443 1440 1438 1436 1433 1430 1427 1424 1421 1418 1414 1410 1407 1404 1401 1398 1396 1395 1393 1391 1389 1387 1386 1384 1382 1381 1380 1379 1378 1378
1578 1579 1564 1546 1546 1549 1545 1544 1544 1541 1542 1543 1542 1543 1543 1543 1544 1543 1537 1533 1538 1542 1533 1521 1510 1500 1497 1501 1506 1507 1504 1503 1500 1499 1499 1497 1494 1491 1488 1485 1482 1479 1476 1473 1470 1467 1463 1461 1458 1455 1453 1451 1449 1447 1444 1442 1439 1437 1434 1431 1428 1425 1422 1419 1416 1412 1408 1404 1401 1398 1395 1393 1391 1390 1388 1387 1385 1383 1381 1379 1378 1377 1376 1375 1374 1373
1579 1580 1572 1560 1555 1551 1544 1542 1542 1542 1543 1544 1544 1544 1545 1546 1547 1548 1540 1532 1534 1537 1534 1531 1519 1502 1499 1505 1506 1504 1502 1500 1500 1500 1498 1496 1492 1489 1485 1483 1480 1477 1473 1470 1466 1463 1459 1457 1454 1451 1450 1447 1445 1443 1440 1438 1435 1433 1430 1427 1424 1421 1418 1414 1410 1406 1402 1399 1396 1393 1391 1389 1387 1386 1384 1382 1380 1378 1377 1375 1373 1372 1372 1370 1370 1369
1580 1581 1578 1569 1560 1549 1543 1542 1542 1543 1542 1543 1544 1544 1545 1547 1549 1553 1550 1537 1532 1532 1529 1528 1518 1504 1504 1507 1504 1502 1501 1500 1501 1500 1496 1492 1489 1486 1482 1480 1478 1474 1471 1466 1463 1459 1456 1453 1451 1448 1447 1444 1442 1439 1437 1435 1432 1429 1427 1423 1420 1417 1413 1410 1405 1401 1397 1394 1392 1390 1388 1386 1384 1382 1380 1378 1376 1374 1373 1371 1369 1368 1367 1366 1365 1365
1581 1582 1576 1564 1552 1542 1539 1541 1542 1543 1543 1543 1544 1543 1545 1547 1548 1551 1550 1543 1539 1533 1527 1526 1517 1505 1504 1506 1504 1502 1502 1502 1501 1498 1494 1490 1486 1484 1481 1477 1474 1470 1467 1463 1460 1457 1454 1451 1448 1446 1444 1441 1439 1437 1434 1432 1429 1426 1423 1420 1417 1413 1409 1405 1401 1397 1393 1391 1389 1387 1385 1383 1381 1379 1376 1374 1372 1370 1368 1367 1365 1363 1362 1361 1360 1360
1580 1580 1579 1573 1562 1550 1542 1541 1541 1540 1542 1544 1544 1545 1546 1547 1548 1548 1547 1546 1544 1535 1532 1535 1523 1506 1504 1505 1502 1502 1503 1503 1500 1497 1494 1490 1485 1482 1479 1475 1471 1467 1463 1460 1457 1454 1452 1449 1446 1444 1441 1439 1437 1434 1432 1429 1426 1423 1420 1417 1413 1409 1405 1401 1397 1393 1390 1388 1386 1384 1382 1380 1378 1375 1373 1371 1369 1366 1364 1362 1360 1359 1357 1356 1355 1355
1583 1584 1583 1582 1580 1575 1565 1557 1549 1542 1543 1544 1543 1545 1547 1549 1551 1551 1548 1549 1547 1539 1539 1541 1525 1507 1504 1504 1501 1502 1503 1501 1498 1496 1494 1490 1486 1481 1476 1472 1468 1464 1461 1458 1455 1452 1449 1447 1445 1442 1440 1437 1434 1432 1429 1426 1423 1420 1416 1413 1410 1406 1402 1397 1393 1390 1388 1385 1383 1381 1379 1377 1374 1372 1370 1368 1365 1363 1361 1359 1357 1356 1354 1352 1351 1352
1587 1587 1584 1581 1581 1579 1572 1564 1557 1553 1553 1549 1545 1547 1550 1552 1554 1552 1552 1554 1551 1544 1539 1535 1525 1512 1505 1504 1503 1503 1502 1499 1496 1493 1490 1487 1484 1480 1475 1471 1466 1463 1460 1457 1453 1450 1447 1446 1444 1442 1439 1435 1431 1428 1425 1423 1420 1417 1413 1410 1406 1403 1399 1394 1390 1388 1385 1383 1380 1378 1376 1374 1371 1369 1367 1364 1362 1360 1358 1356 1354 1353 1351 1349 1349 1348
1588 1585 1581 1580 1577 1573 1570 1565 1559 1559 1559 1553 1550 1552 1554 1555 1555 1554 1556 1554 1550 1547 1537 1525 1523 1518 1507 1505 1506 1504 1502 1500 1496 1491 1487 1484 1482 1478 1473 1468 1464 1462 1458 1454 1451 1448 1446 1444 1442 1440 1437 1434 1429 1426 1423 1420 1417 1414 1411 1407 1403 1399 1396 1392 1388 1385 1383 1380 1378 1375 1373 1371 1368 1366 1364 1361 1359 1357 1355 1353 1351 1349 1347 1346 1346 1344
1588 1584 1581 1580 1574 1569 1570 1566 1560 1560 1559 1553 1554 1557 1558 1558 1556 1556 1556 1552 1550 1551 1539 1523 1521 1519 1510 1507 1508 1506 1504 1501 1496 1491 1486 1482 1479 1475 1470 1467 1464 1460 1456 1453 1450 1448 1446 1444 1441 1438 1435 1432 1429 1424 1421 1418 1415 1411 1407 1404 1400 1397 1393 1389 1386 1383 1381 1378 1375 1373 1370 1368 1366 1363 1361 1359 1357 1355 1352 1350 1348 1346 1344 1343 1341 1340
1588 1583 1582 1583 1576 1568 1566 1564 1559 1558 1555 1551 1555 1560 1559 1557 1556 1554 1553 1550 1547 1546 1537 1525 1522 1519 1515 1513 1511 1508 1505 1501 1496 1491 1486 1481 1476 1472 1469 1467 1464 1460 1456 1453 1451 1449 1447 1443 1440 1437 1433 1430 1427 1423 1419 1416 1412 1408 1405 1401 1398 1394 1390 1387 1384 1381 1379 1376 1373 1371 1368 1366 1364 1361 1359 1357 1354 1352 1349 1347 1345 1342 1341 1339 1338 1336
1586 1582 1583 1586 1579 1567 1561 1558 1556 1556 1555 1555 1558 1560 1559 1557 1555 1552 1550 1546 1542 1538 1531 1527 1525 1521 1518 1516 1512 1508 1504 1499 1493 1489 1485 1481 1476 1472 1469 1467 1465 1461 1458 1455 1453 1450 1446 1442 1438 1435 1431 1428 1425 1421 1417 1413 1409 1406 1403 1399 1395 1391 1388 1385 1383 1380 1377 1375 1372 1369 1367 1364 1362 1359 1357 1355 1352 1349 1347 1345 1342 1340 1338 1336 1334 1332
1588 1586 1585 1586 1582 1567 1557 1556 1555 1554 1553 1556 1561 1561 1560 1559 1556 1552 1548 1545 1541 1534 1529 1530 1529 1522 1516 1513 1509 1505 1501 1497 1493 1490 1485 1480 1476 1473 1470 1468 1466 1463 1459 1456 1453 1449 1445 1441 1438 1434 1431 1427 1423 1419 1415 1411 1407 1404 1401 1397 1393 1389 1386 1384 1381 1379 1376 1373 1371 1368 1366 1363 1360 1357 1355 1352 1350 1347 1345 1342 1340 1337 1335 1333 1331 1329
1593 1590 1587 1590 1585 1568 1558 1559 1559 1555 1553 1557 1564 1565 1560 1556 1554 1551 1547 1544 1540 1537 1536 1535 1531 1522 1516 1512 1506 1501 1498 1497 1495 1492 1486 1480 1477 1475 1473 1471 1468 1465 1462 1458 1454 1450 1446 1442 1439 1435 1431 1426 1422 1418 1414 1410 1407 1403 1399 1395 1391 1388 1386 1383 1380 1378 1375 1372 1370 1367 1364 1361 1358 1355 1353 1350 1347 1345 1342 1340 1337 1335 1332 1330 1328 1326
1594 1593 1590 1593 1588 1572 1564 1563 1559 1557 1558 1559 1560 1561 1558 1554 1552 1549 1546 1541 1538 1538 1539 1537 1530 1523 1518 1513 1508 1502 1500 1499 1498 1495 1489 1484 1480 1477 1475 1472 1469 1465 1462 1458 1454 1450 1447 1443 1439 1435 1430 1425 1421 1417 1414 1410 1406 1402 1398 1394 1391 1388 1385 1382 1380 1377 1374 1371 1368 1365 1362 1359 1356 1353 1350 1348 1345 1342 1339 1337 1334 1332 1330 1327 1325 1324
1592 1592 1591 1592 1589 1576 1566 1566 1565 1562 1559 1558 1556 1557 1557 1555 1553 1549 1545 1541 1539 1538 1538 1536 1530 1524 1519 1515 1511 1506 1502 1501 1500 1495 1489 1486 1483 1480 1476 1472 1468 1464 1460 1456 1452 1449 1445 1441 1437 1433 1429 1425 1421 1417 1413 1409 1405 1401 1397 1394 1391 1388 1385 1382 1379 1376 1373 1369 1366 1363 1360 1357 1354 1351 1348 1345 1342 1340 1337 1335 1332 1330 1328 1325 1324 1322
1591 1593 1592 1590 1587 1576 1567 1575 1580 1565 1552 1554 1557 1556 1555 1554 1553 1549 1542 1539 1540 1540 1538 1535 1529 1523 1519 1515 1513 1508 1502 1498 1496 1493 1490 1486 1483 1480 1476 1472 1468 1463 1460 1456 1451 1447 1444 1440 1437 1433 1429 1426 1421 1416 1412 1408 1404 1401 1397 1394 1391 1388 1385 1382 1378 1375 1371 1368 1365 1361 1358 1355 1352 1348 1346 1343 1340 1337 1335 1333 1330 1328 1326 1324 1322 1320
1590 1592 1593 1590 1588 1584 1579 1580 1576 1558 1550 1558 1562 1559 1557 1555 1553 1551 1546 1539 1538 1540 1539 1534 1528 1523 1520 1515 1511 1506 1499 1491 1488 1487 1487 1485 1482 1480 1477 1473 1469 1464 1460 1456 1452 1449 1445 1441 1437 1433 1429 1425 1421 1416 1411 1408 1404 1401 1397 1394 1391 1387 1384 1381 1377 1373 1370 1367 1363 1360 1356 1353 1350 1346 1343 1341 1338 1336 1333 1331 1329 1327 1325 1323 1321 1319
1591 1591 1593 1591 1590 1590 1588 1583 1572 1558 1557 1566 1567 1562 1560 1556 1552 1552 1550 1542 1537 1538 1538 1534 1528 1524 1520 1516 1511 1505 1496 1487 1483 1482 1483 1482 1481 1478 1476 1474 1470 1465 1460 1456 1452 1448 1444 1440 1436 1432 1427 1423 1420 1415 1411 1408 1405 1401 1397 1394 1390 1387 1384 1380 1376 1372 1369 1365 1362 1358 1355 1352 1349 1345 1342 1339 1337 1334 1332 1330 1328 1326 1324 1322 1320 1319
1591 1592 1594 1593 1591 1592 1593 1591 1585 1572 1564 1566 1566 1560 1557 1556 1552 1548 1545 1540 1537 1537 1536 1533 1530 1526 1522 1519 1514 1509 1502 1493 1486 1482 1482 1482 1480 1477 1475 1472 1469 1464 1460 1456 1452 1448 1443 1439 1435 1430 1426 1422 1418 1415 1411 1408 1405 1401 1397 1394 1390 1386 1383 1379 1375 1371 1368 1364 1360 1357 1354 1351 1347 1344 1341 1338 1336 1333 1331 1329 1327 1325 1323 1322 1320 1319
1591 1592 1594 1594 1594 1594 1594 1591 1586 1576 1569 1567 1564 1559 1557 1554 1550 1549 1547 1539 1534 1536 1536 1533 1531 1528 1525 1522 1517 1513 1511 1506 1496 1489 1487 1485 1482 1480 1477 1472 1467 1463 1459 1455 1452 1447 1443 1439 1434 1429 1425 1422 1418 1415 1411 1408 1404 1401 1397 1393 1390 1386 1382 1378 1375 1371 1367 1363 1360 1356 1353 1350 1347 1344 1341 1338 1335 1333 1330 1328 1326 1325 1323 1322 1321 1319
1592 1595 1595 1594 1594 1593 1592 1589 1582 1573 1570 1568 1563 1560 1556 1549 1548 1556 1557 1545 1537 1538 1538 1535 1533 1530 1526 1523 1519 1516 1515 1513 1506 1498 1492 1488 1484 1480 1477 1473 1468 1464 1460 1455 1451 1447 1442 1438 1434 1430 1426 1423 1419 1415 1411 1408 1404 1400 1397 1393 1390 1386 1382 1378 1374 1370 1366 1362 1359 1356 1353 1350 1347 1344 1341 1338 1335 1332 1331 1329 1326 1325 1323 1322 1321 1319
1597 1597 1596 1595 1594 1589 1585 1585 1580 1569 1565 1565 1561 1558 1556 1555 1558 1562 1558 1549 1545 1543 1539 1536 1534 1530 1526 1523 1521 1517 1513 1510 1506 1500 1494 1489 1485 1480 1476 1471 1467 1463 1459 1455 1450 1446 1441 1437 1433 1429 1426 1422 1419 1415 1411 1408 1404 1400 1396 1393 1389 1386 1382 1378 1374 1370 1366 1362 1359 1355 1352 1350 1347 1344 1341 1338 1336 1333 1331 1329 1327 1325 1323 1322 1321 1320
1599 1599 1598 1596 1593 1587 1584 1587 1583 1570 1562 1561 1561 1559 1561 1567 1570 1565 1555 1550 1548 1543 1539 1536 1533 1530 1526 1522 1518 1515 1511 1506 1503 1499 1494 1489 1484 1480 1475 1470 1466 1461 1458 1454 1449 1445 1441 1437 1433 1429 1425 1422 1418 1415 1411 1407 1404 1400 1396 1393 1389 1385 1381 1377 1373 1370 1366 1362 1359 1355 1353 1350 1347 1344 1342 1339 1336 1334 1332 1329 1327 1325 1324 1322 1321 1319
1599 1601 1603 1599 1595 1594 1593 1591 1583 1573 1567 1567 1567 1568 1568 1569 1569 1565 1558 1552 1547 1543 1540 1536 1531 1530 1527 1522 1517 1513 1508 1504 1500 1496 1492 1487 1483 1478 1474 1470 1465 1461 1457 1453 1449 1444 1441 1436 1432 1428 1425 1421 1418 1414 1411 1407 1403 1400 1396 1393 1389 1384 1380 1377 1373 1369 1365 1362 1359 1356 1353 1350 1347 1345 1342 1339 1336 1334 1332 1329 1327 1325 1324 1322 1321 1319
1598 1599 1602 1600 1597 1596 1594 1586 1578 1574 1573 1573 1573 1572 1570 1568 1566 1563 1559 1553 1547 1544 1541 1536 1531 1528 1525 1521 1517 1512 1507 1504 1499 1495 1491 1486 1481 1477 1473 1469 1465 1460 1456 1453 1449 1445 1441 1437 1432 1428 1424 1421 1417 1414 1411 1407 1403 1399 1396 1392 1388 1384 1380 1376 1372 1369 1365 1362 1359 1356 1353 1350 1347 1345 1342 1339 1336 1334 1331 1329 1327 1325 1324 1322 1321 1319
1596 1596 1598 1596 1594 1592 1586 1579 1577 1577 1575 1575 1574 1572 1570 1567 1563 1560 1556 1552 1547 1544 1541 1537 1532 1527 1523 1520 1515 1511 1507 1503 1498 1494 1490 1485 1480 1476 1473 1468 1464 1460 1456 1452 1448 1444 1440 1436 1432 1428 1423 1419 1416 1413 1410 1407 1404 1400 1396 1392 1388 1384 1380 1376 1372 1368 1365 1362 1359 1356 1353 1349 1347 1344 1342 1339 1337 1334 1332 1329 1327 1325 1324 1322 1321 1319
1595 1595 1595 1593 1593 1591 1582 1575 1575 1576 1573 1572 1571 1569 1567 1565 1561 1558 1556 1552 1547 1543 1539 1536 1532 1527 1523 1520 1515 1511 1507 1502 1497 1493 1489 1484 1479 1475 1472 1467 1463 1459 1456 1452 1448 1444 1440 1435 1431 1427 1423 1419 1416 1413 1410 1407 1403 1400 1396 1392 1388 1384 1380 1376 1372 1368 1365 1362 1359 1356 1353 1349 1346 1344 1341 1339 1337 1335 1333 1330 1328 1326 1324 1322 1321 1320
1595 1593 1592 1592 1592 1589 1581 1574 1575 1575 1573 1571 1570 1566 1563 1561 1558 1556 1554 1550 1546 1542 1538 1534 1530 1526 1521 1518 1515 1511 1505 1501 1497 1493 1488 1483 1479 1475 1471 1467 1463 1459 1456 1452 1448 1444 1440 1436 1432 1428 1424 1420 1416 1413 1410 1406 1403 1399 1395 1391 1387 1383 1379 1376 1372 1369 1365 1362 1359 1356 1353 1350 1347 1344 1342 1339 1337 1334 1332 1330 1328 1326 1324 1323 1321 1319
1593 1591 1591 1590 1588 1583 1577 1574 1574 1571 1568 1567 1567 1565 1562 1558 1554 1553 1551 1548 1544 1540 1535 1532 1529 1525 1521 1517 1513 1509 1504 1500 1497 1492 1488 1483 1479 1475 1471 1467 1463 1460 1456 1452 1448 1444 1440 1436 1432 1428 1425 1421 1417 1414 1410 1406 1402 1399 1395 1391 1387 1383 1379 1375 1372 1369 1366 1363 1360 1356 1353 1350 1348 1345 1342 1340 1337 1335 1333 1331 1329 1327 1326 1324 1322 1321
1591 1590 1589 1589 1585 1579 1575 1575 1575 1572 1568 1566 1564 1563 1560 1557 1554 1551 1547 1543 1540 1536 1533 1530 1526 1522 1519 1516 1512 1508 1503 1499 1495 1492 1487 1483 1478 1475 1471 1467 1463 1459 1455 1452 1448 1444 1441 1437 1433 1429 1425 1421 1417 1413 1409 1406 1402 1398 1395 1391 1387 1383 1379 1376 1372 1369 1366 1363 1360 1357 1354 1351 1349 1346 1343 1341 1338 1336 1334 1332 1330 1328 1327 1325 1324 1322
1588 1588 1587 1588 1585 1579 1575 1574 1575 1574 1570 1566 1565 1563 1560 1556 1553 1549 1545 1541 1538 1534 1531 1527 1523 1519 1516 1513 1510 1507 1503 1499 1495 1491 1487 1482 1478 1475 1471 1467 1463 1458 1455 1451 1447 1443 1439 1436 1432 1428 1424 1420 1417 1413 1409 1406 1402 1398 1394 1391 1387 1384 1380 1376 1372 1369 1366 1363 1360 1358 1355 1352 1349 1346 1344 1342 1339 1337 1334 1332 1331 1330 1328 1326 1325 1323